Regional Weather Roundup
Issued by NWS

Home | Current Version | Previous Version | Graphics & Text | Print | Product List | Glossary On
Versions: 1 2 3 4 5 6 7 8 9 10 11 12 13 14 15 16 17 18 19 20 21 22 23 24 25 26 27 28 29 30 31 32 33 34 35 36 37 38 39 40 41 42 43 44 45 46 47 48 49 50
000
ASUS43 KIND 012209
RWRIN

WEATHER ROUNDUP FOR INDIANA
NATIONAL WEATHER SERVICE INDIANAPOLIS IN
600 PM EDT WED APR 01 2015

NOTE: "FAIR" INDICATES FEW OR NO CLOUDS BELOW 12,000 FEET WITH NO
SIGNIFICANT WEATHER AND/OR OBSTRUCTIONS TO VISIBILITY.

* - STATION DOES NOT REPORT WEATHER SUCH AS PRECIPITATION OR FOG.

+ - STATION NOT QUALITY CONTROLLED BY THE NATIONAL WEATHER SERVICE.
    USE DATA WITH CAUTION...ESPECIALLY DEWPOINT AND RELATIVE
    HUMIDITY OBSERVATIONS.

INZ001>003-010>013-019-020-012300-
NORTHWEST INDIANA

CITY           SKY/WX    TMP DP  RH WIND       PRES   REMARKS
GARY /AIRPORT/ MOSUNNY   73  23  15 S14G28    29.93F
KNOX *+        SUNNY     70  -9   4 S15G21    29.97S
LA PORTE +     SUNNY     71  36  27 S12       29.97F
MICHIGAN CITY+ SUNNY     70  28  21 SW14G21   29.95F
MONTICELLO +   SUNNY     69  37  31 S8        29.99F
RENSSELAER +   SUNNY     70  37  30 S16       29.97F
VALPARAISO     SUNNY     70  35  27 S14       29.96F

$$

LMZ046-743>745-012300-
SOUTHERN LAKE MICHIGAN

STATION/POSITION TIME  TEMP WIND        PRES
                       AIR  DIR/SP/G
                 (UTC) (F)  (DEG/KT/KT) (MB)
BURNS HARBOR     2200   67  190/ 15/ 21 1014.2S
MICHIGAN CITY    2200       160/ 12/ 18   N/A

$$

INZ004-005-014>016-021>024-012300-
NORTH CENTRAL INDIANA

CITY           SKY/WX    TMP DP  RH WIND       PRES   REMARKS
ELKHART        SUNNY     68  30  24 SW12      29.98F
GOSHEN         SUNNY     68  36  30 SW13      29.98F
LOGANSPORT +   SUNNY     68  34  28 S9        30.02S
PERU/GRISSOM   SUNNY     68  36  30 S10       30.01F
ROCHESTER +    SUNNY     70  34  26 S10       30.01S
SOUTH BEND     SUNNY     70  33  25 S15       29.97F
WARSAW +       SUNNY     68  36  30 SW8       30.00F

$$

INZ006>009-017-018-025>027-012300-
NORTHEAST INDIANA

CITY           SKY/WX    TMP DP  RH WIND       PRES   REMARKS
ANGOLA *+      SUNNY     66  36  32 S9        30.00S
AUBURN +       SUNNY     68  32  26 S3        30.02F
FORT WAYNE     MOSUNNY   67  35  30 S10       30.03F
HUNTINGTON +   SUNNY     66  25  21 S5        30.02S

$$

INZ028-029-035-036-043>045-051>053-012300-
WEST CENTRAL INDIANA

CITY           SKY/WX    TMP DP  RH WIND       PRES   REMARKS
CRAWFORDSVL +  SUNNY     69  26  20 SE12      30.00F
GREENCASTLE +  SUNNY     68  28  22 SE12G17   30.02F
LAFAYETTE      SUNNY     69  35  28 S12       29.99F
TERRE HAUTE    MOSUNNY   69  37  30 S12       30.01F

$$

INZ030>032-037>040-046>048-054>057-064-065-012300-
CENTRAL INDIANA

CITY           SKY/WX    TMP DP  RH WIND       PRES   REMARKS
CP ATTERBURY + SUNNY     66  32  28 SE12      30.05S
COLUMBUS       SUNNY     66  25  20 S10       30.05F
FISHERS *+     SUNNY     66  41  39 S12       30.04S
FRANKFORT +    SUNNY     69  36  29 S9        30.03S
GREENWOOD *+   SUNNY     66  27  22 SE8       30.04F
INDIANAPOLIS   MOSUNNY   68  32  26 SE13G24   30.01F
-EAGLE CREEK   SUNNY     67  33  28 SE12      30.02F
KOKOMO *+      SUNNY     66  37  34 S14       30.02F
MARION +       SUNNY     66  32  28 S14       30.04S
MT COMFORT *+  SUNNY     66  14  13 S8G18     30.05S
SHELBYVILLE    SUNNY     69  36  29 S13       30.04F
ZIONSVILLE +   SUNNY     67  31  25 SE12      30.04S

$$

INZ033-034-041-042-049-050-058-059-012300-
EAST CENTRAL INDIANA

CITY           SKY/WX    TMP DP  RH WIND       PRES   REMARKS
MUNCIE         SUNNY     67  32  27 S10       30.04S

$$

INZ060-061-067>069-081>083-085>088-012300-
SOUTHWEST INDIANA

CITY           SKY/WX    TMP DP  RH WIND       PRES   REMARKS
EVANSVILLE     MOSUNNY   73  35  25 SE9       30.02S
HUNTINGBURG *+ MOSUNNY   70  36  28 SE14      30.03S
WASHINGTON +   MOSUNNY   68  32  26 SE12      30.01F

$$

INZ062-063-066-070>080-084-089>092-012300-
SOUTH CENTRAL AND SOUTHEAST INDIANA

CITY           SKY/WX    TMP DP  RH WIND       PRES   REMARKS
BEDFORD +      MOSUNNY   68  30  24 SE14G20   30.04F
BLOOMINGTON    MOSUNNY   68  32  26 SE10G18   30.03F
MADISON *+     SUNNY     68  23  18 S5        30.08S
NORTH VERNON + SUNNY     68  28  22 SE7       30.06F
SEYMOUR +      MOSUNNY   68  39  34 S9        30.04F

$$




USA.gov is the U.S. government's official web portal to all federal, state and local government web resources and services.